[[{"header":{"parameterUnit":"m.s-1","parameterCategory":1,"la1":30.2991,"la2":30.254,"lo1":-89.0895,"lo2":-89.0444,"dy":0.0017,"dx":0.0017,"nx":28,"ny":28,"refTime":"2024-03-04T03:00:00:Z","depth":0,"parameterNumber":2,"parameterNumberName":"U-component_of_WINDS"},"data":[0,0,0,0,0,0,0,0,0,0,0,0,0,0,0,0,0,0,0,0,0,0,0,0,0,0,0,0,0,0,0,0,0,0,0,0,0,0,0,0,0,0,0,0,0,0,0,0,0,0,0,0,0,0,0,0,0,0,-7.9778,-7.9777,0,-7.9681,-7.968,-7.9679,-7.9494,-7.9491,-7.9487,-7.9484,-7.9389,-7.9389,-7.939,0,0,0,0,0,0,0,0,0,0,0,0,0,-7.9807,-7.9807,-7.9778,-7.9777,-7.9775,-7.9682,-7.968,-7.9679,-7.9495,-7.9491,-7.9486,-7.9482,-7.9388,-7.9389,-7.939,0,0,0,0,0,0,0,0,0,0,0,0,0,-7.9761,-7.9807,-7.9778,-7.9672,-7.9662,-7.9682,-7.968,-7.9679,-7.9496,-7.949,-7.9485,-7.948,-7.9388,-7.9389,-7.939,-7.9507,0,0,-7.9394,-7.9395,0,0,0,0,0,0,0,0,-7.9764,-7.976,-7.9689,-7.9679,-7.9668,-7.9594,-7.9655,-7.9621,-7.9497,-7.9559,-7.9484,-7.9477,-7.9462,-7.9456,-7.945,-7.9502,-7.9498,-7.9394,-7.9395,-7.9396,-7.9396,0,0,0,0,0,0,0,-7.9767,-7.9763,-7.974,-7.9688,-7.9675,-7.9631,-7.9618,-7.9648,-7.9542,-7.9553,-7.9539,-7.953,-7.9455,-7.945,-7.9447,-7.9497,-7.9394,-7.9395,-7.9396,-7.9397,-7.9639,-7.9644,0,0,0,0,0,0,-7.9785,-7.9767,-7.9743,-7.9737,-7.9703,-7.9635,-7.9621,-7.9623,-7.9541,-7.9523,-7.9535,-7.9522,-7.945,-7.9446,-7.9443,-7.9571,-7.9396,-7.9397,-7.9398,-7.9633,-7.964,-7.9646,0,0,0,0,0,0,-7.9787,-7.9785,-7.9746,-7.9748,-7.974,-7.964,-7.9645,-7.9624,-7.9619,-7.9527,-7.9508,-7.9549,-7.9446,-7.9441,-7.9492,-7.9565,-7.9397,-7.9399,-7.9626,-7.9635,-7.9643,-7.9831,0,0,0,0,0,0,-7.9788,-7.9786,-7.9828,-7.975,-7.974,-7.9796,-7.9649,-7.9626,-7.9621,-7.9603,-7.9535,-7.9519,-7.9441,-7.9491,-7.9493,-7.9564,-7.94,-7.9619,-7.963,-7.964,-7.9817,-7.9845,-7.9868,0,0,0,0,0,-7.979,-7.9886,-7.9831,-7.9829,-7.9791,-7.9801,-7.9795,-7.9703,-7.9628,-7.9669,-7.9611,-7.9521,-7.9559,-7.9498,-7.9499,-7.9571,-7.9614,-7.9627,-7.964,-7.9806,-7.9839,-7.9867,0,0,0,0,0,0,-7.9975,-7.9874,-7.9812,-7.9885,-7.9853,-7.977,-7.9819,-7.9741,-7.973,-7.9714,-7.9601,-7.9587,-7.9653,-7.9618,-7.9552,-7.9679,-7.9572,-7.9586,-7.9698,-7.9729,-7.9754,-7.9759,-7.9401,0,0,0,0,0,-8.0025,-8.0041,-7.9952,-8.0025,-8.0012,-7.992,-7.992,-7.9852,-7.9814,-7.98,-7.9745,-7.9713,-7.9717,-7.9722,-7.9721,-7.9814,-7.9795,-7.9864,-7.989,-7.9911,-7.9922,-7.9967,-7.9995,-7.9688,-7.9688,-7.9688,0,0,-8.0127,-8.0074,-8.009,-8.0061,-8.0028,-8.0047,-7.9909,-7.9935,-7.9948,-7.9804,-7.9847,-7.9807,-7.9764,-7.9836,-7.9865,-7.9808,-8.0004,-7.9927,-7.9945,-7.9944,-7.9983,-8.0012,-8.0038,-7.9697,-7.9695,-7.9694,0,0,-8.0322,-8.0284,-8.034,-8.031,-8.0261,-8.0199,-8.0214,-8.0143,-8.011,-8.0152,-8.0043,-8.006,-8.007,-8.0042,-8.003,-8.0219,-8.0135,-8.0223,-8.0352,-8.0397,-8.0421,-8.0442,-8.0506,-8.0531,-8.0236,-8.0236,-8.0236,0,-8.0454,-8.0477,-8.0379,-8.0412,-8.0402,-8.0273,-8.0329,-8.0306,-8.0261,-8.0257,-8.0196,-8.0205,-8.0168,-8.023,-8.0276,-8.0272,-8.0284,-8.0227,-8.0426,-8.0446,-8.0463,-8.0523,-8.0548,-8.0247,-8.0245,-8.0244,-8.0243,0,-8.0642,-8.0661,-8.0712,-8.0669,-8.0667,-8.0712,-8.0621,-8.063,-8.0564,-8.051,-8.0554,-8.0505,-8.0491,-8.0502,-8.0439,-8.0556,-8.0522,-8.0446,-8.0334,-8.0505,-8.0559,-8.0581,-8.0262,-8.0258,-8.0255,-8.0252,0,0,-8.0945,-8.085,-8.087,-8.0849,-8.0788,-8.08,-8.0842,-8.0827,-8.0836,-8.0811,-8.084,-8.0854,-8.0782,-8.0769,-8.0701,-8.0742,-8.0891,-8.0659,-8.0656,-8.07,-8.1015,-8.1069,-8.1097,-8.0837,-8.0841,-8.0845,-8.1017,0,-8.1122,-8.1182,-8.1096,-8.1176,-8.1191,-8.1072,-8.1107,-8.1074,-8.1026,-8.1033,-8.098,-8.0989,-8.0895,-8.0886,-8.0921,-8.0865,-8.0951,-8.0853,-8.0862,-8.0863,-8.0871,-8.1126,-8.1183,-8.1348,-8.1038,-8.1041,-8.1044,0,-8.1335,-8.1319,-8.14,-8.1334,-8.1337,-8.137,-8.135,-8.1359,-8.132,-8.1282,-8.1269,-8.1189,-8.1225,-8.1122,-8.1169,-8.1104,-8.1104,-8.1078,-8.1082,-8.1074,-8.096,-8.1121,-8.1398,-8.1421,-8.1077,-8.1074,-8.1072,0,-8.1543,-8.1543,-8.159,-8.1577,-8.1503,-8.1528,-8.1499,-8.1454,-8.1452,-8.1436,-8.1432,-8.1423,-8.1416,-8.141,-8.133,-8.1263,-8.1386,-8.1277,-8.1354,-8.1356,-8.138,-8.1379,-8.1656,-8.139,-8.139,-8.1389,-8.1389,0,-8.1747,-8.18,-8.1682,-8.1711,-8.1768,-8.1671,-8.1731,-8.1689,-8.1652,-8.1671,-8.157,-8.1591,-8.1486,-8.1496,-8.1435,-8.1482,-8.1481,-8.145,-8.1432,-8.1456,-8.146,-8.145,-8.1435,-8.1396,-8.1394,-8.1393,-8.1392,0,-8.1985,-8.1909,-8.1953,-8.188,-8.1863,-8.1908,-8.1845,-8.1869,-8.1816,-8.1842,-8.1843,-8.1759,-8.1766,-8.1687,-8.1679,-8.1638,-8.1711,-8.1676,-8.1723,-8.171,-8.1789,-8.1781,-8.2066,-8.2097,-8.1817,-8.182,-8.1822,0,-8.2117,-8.2155,-8.2087,-8.2092,-8.2067,-8.2078,-8.2074,-8.1982,-8.1983,-8.1943,-8.1972,-8.1971,-8.1963,-8.198,-8.1919,-8.1912,-8.1873,-8.1974,-8.1871,-8.1893,-8.1869,-8.1865,-8.1867,-8.1993,-8.1997,-8.2,-8.2002,0,-8.2359,-8.2319,-8.2317,-8.2303,-8.2302,-8.2287,-8.2265,-8.2276,-8.2176,-8.2182,-8.2187,-8.2182,-8.2174,-8.2173,-8.2155,-8.2125,-8.2047,-8.2036,-8.2052,-8.2074,-8.2098,-8.2082,-8.1776,-8.2028,-8.2025,-8.2024,-8.2022,-8.2021,-8.2544,-8.2572,-8.2528,-8.2529,-8.2504,-8.2486,-8.2505,-8.2454,-8.2456,-8.2441,-8.2389,-8.2403,-8.2365,-8.2332,-8.231,-8.232,-8.2271,-8.2296,-8.2302,-8.2308,-8.2321,-8.2102,-8.2318,-8.2317,-8.2316,-8.2315,-8.2315,0,-8.2776,-8.2742,-8.2745,-8.2717,-8.2719,-8.2648,-8.2621,-8.2626,-8.264,-8.2611,-8.2607,-8.2613,-8.2612,-8.2553,-8.2545,-8.2564,-8.2528,-8.2565,-8.2559,-8.2553,-8.2367,-8.2351,-8.2594,-8.2594,-8.2594,-8.2594,-8.2594,-8.2594,-8.2896,-8.2938,-8.2895,-8.2924,-8.2891,-8.2902,-8.2893,-8.2877,-8.2852,-8.2863,-8.2862,-8.2824,-8.2782,-8.2771,-8.2767,-8.275,-8.275,-8.2798,-8.2768,-8.2594,-8.2567,-8.2541,-8.2525,-8.28,-8.28,-8.2952,-8.2954,-8.2955]},{"header":{"parameterUnit":"m.s-1","parameterCategory":1,"la1":30.2991,"la2":30.254,"lo1":-89.0895,"lo2":-89.0444,"dy":0.0017,"dx":0.0017,"nx":28,"ny":28,"refTime":"2024-03-04T03:00:00:Z","depth":0,"parameterNumber":3,"parameterNumberName":"V-component_of_WINDS"},"data":[0,0,0,0,0,0,0,0,0,0,0,0,0,0,0,0,0,0,0,0,0,0,0,0,0,0,0,0,0,0,0,0,0,0,0,0,0,0,0,0,0,0,0,0,0,0,0,0,0,0,0,0,0,0,0,0,0,0,1.1528,1.153,0,1.166,1.1662,1.1663,1.1723,1.1723,1.1723,1.1723,1.1859,1.1863,1.1867,0,0,0,0,0,0,0,0,0,0,0,0,0,1.133,1.1334,1.1528,1.153,1.1531,1.166,1.1662,1.1664,1.1723,1.1723,1.1723,1.1723,1.1858,1.1863,1.1867,0,0,0,0,0,0,0,0,0,0,0,0,0,1.1435,1.1335,1.1528,1.1577,1.1582,1.166,1.1662,1.1664,1.1723,1.1723,1.1723,1.1722,1.1857,1.1862,1.1868,1.1907,0,0,1.1885,1.1887,0,0,0,0,0,0,0,0,1.1429,1.1442,1.1568,1.1573,1.158,1.1675,1.1642,1.1746,1.1723,1.167,1.1723,1.1722,1.1798,1.1809,1.1834,1.1913,1.1919,1.1886,1.1889,1.1891,1.1893,0,0,0,0,0,0,0,1.1421,1.1436,1.158,1.157,1.1577,1.1593,1.1607,1.1662,1.1734,1.1674,1.1679,1.1694,1.1802,1.1828,1.1838,1.1921,1.1885,1.189,1.1894,1.1896,1.2041,1.2042,0,0,0,0,0,0,1.1406,1.143,1.1576,1.1584,1.1502,1.1596,1.1613,1.1645,1.1733,1.1746,1.1694,1.1696,1.1819,1.1831,1.1843,1.1896,1.1891,1.1897,1.19,1.2041,1.2042,1.2042,0,0,0,0,0,0,1.1401,1.1418,1.1571,1.1509,1.1529,1.16,1.1635,1.1647,1.1674,1.1748,1.1761,1.1708,1.1819,1.1835,1.1891,1.1902,1.1899,1.1904,1.204,1.2041,1.2042,1.2002,0,0,0,0,0,0,1.1395,1.1416,1.1431,1.1508,1.1532,1.1616,1.1636,1.165,1.1684,1.1688,1.1765,1.1777,1.182,1.1882,1.1896,1.1909,1.1909,1.204,1.2041,1.2042,1.2002,1.2001,1.2,0,0,0,0,0,1.1388,1.1415,1.1432,1.1449,1.1552,1.1616,1.163,1.1679,1.1684,1.1701,1.1748,1.1775,1.1898,1.1887,1.1904,1.1919,1.2039,1.2041,1.2042,1.2003,1.2001,1.2,0,0,0,0,0,0,1.1337,1.1426,1.1445,1.1497,1.1549,1.1626,1.1648,1.1675,1.1726,1.1728,1.1787,1.1804,1.1855,1.1892,1.1879,1.1962,1.1971,1.1975,1.1936,1.1935,1.1934,1.1924,1.1913,0,0,0,0,0,1.1332,1.1376,1.1451,1.149,1.1514,1.1577,1.1606,1.1639,1.1695,1.1718,1.1769,1.1823,1.1874,1.1906,1.1957,1.2008,1.2026,1.2026,1.2025,1.2023,1.2027,1.2058,1.206,1.2046,1.2046,1.2046,0,0,1.1321,1.1375,1.1399,1.1481,1.1525,1.157,1.1595,1.1641,1.1676,1.1725,1.1781,1.1821,1.1885,1.1939,1.1965,1.1972,1.2035,1.2025,1.2023,1.2028,1.2059,1.2061,1.2062,1.2046,1.2046,1.2046,0,0,1.1326,1.137,1.1408,1.1452,1.1518,1.1559,1.1568,1.1642,1.1671,1.1728,1.1766,1.1808,1.1894,1.1939,1.1973,1.1996,1.2023,1.201,1.2004,1.2034,1.2035,1.2036,1.2046,1.2048,1.2014,1.2013,1.2013,0,1.1305,1.1374,1.1425,1.147,1.1505,1.1551,1.1591,1.1631,1.171,1.1734,1.174,1.185,1.1896,1.1962,1.1968,1.1993,1.2006,1.2003,1.203,1.2032,1.2034,1.2044,1.2047,1.2012,1.2012,1.2012,1.2012,0,1.1346,1.1394,1.1417,1.1492,1.153,1.1572,1.163,1.1662,1.1692,1.1733,1.1792,1.1849,1.1913,1.1931,1.196,1.2001,1.2004,1.2019,1.2029,1.2033,1.2043,1.2047,1.2009,1.201,1.201,1.2011,0,0,1.1322,1.1426,1.1433,1.1469,1.1546,1.1584,1.1629,1.1691,1.1718,1.1772,1.1812,1.1884,1.1899,1.1938,1.1972,1.1998,1.2015,1.2011,1.2014,1.2011,1.2066,1.2054,1.2058,1.2033,1.2034,1.2034,1.2061,0,1.1339,1.142,1.1468,1.153,1.1576,1.1621,1.166,1.1712,1.1752,1.1797,1.1841,1.1892,1.1907,1.1931,1.1959,1.2007,1.2027,1.2005,1.2072,1.2074,1.2056,1.2063,1.2051,1.2074,1.2065,1.2066,1.2066,0,1.1369,1.1421,1.1488,1.1561,1.1582,1.1617,1.1679,1.1721,1.1781,1.1808,1.1851,1.1886,1.1937,1.1942,1.2013,1.1997,1.2027,1.2055,1.2057,1.2066,1.2071,1.2074,1.2082,1.2085,1.2073,1.2072,1.2072,0,1.1346,1.1434,1.1486,1.1515,1.1601,1.1624,1.1661,1.1721,1.1756,1.181,1.1834,1.1893,1.1926,1.1971,1.2022,1.2021,1.2088,1.2097,1.2113,1.2112,1.2127,1.2125,1.2141,1.2143,1.2143,1.2143,1.2143,0,1.136,1.14,1.1478,1.151,1.1556,1.161,1.1655,1.1696,1.1749,1.1791,1.1833,1.1871,1.1935,1.1982,1.2021,1.2075,1.2089,1.2113,1.2124,1.211,1.2108,1.2132,1.2132,1.2144,1.2144,1.2144,1.2143,0,1.1344,1.1397,1.1457,1.1534,1.1554,1.1585,1.1651,1.1685,1.1727,1.1779,1.1795,1.1861,1.1918,1.1973,1.2049,1.2076,1.213,1.2143,1.211,1.2116,1.2129,1.2128,1.2162,1.217,1.2165,1.2165,1.2165,0,1.135,1.1381,1.1462,1.1493,1.1529,1.1578,1.1614,1.1669,1.1705,1.1777,1.1802,1.1862,1.1914,1.2003,1.2058,1.2117,1.2133,1.2141,1.2142,1.2128,1.2135,1.2133,1.2138,1.214,1.214,1.2139,1.2139,0,1.1355,1.138,1.1431,1.1491,1.1533,1.1582,1.1634,1.1657,1.1722,1.176,1.1819,1.1859,1.1937,1.1997,1.2063,1.2102,1.2132,1.2138,1.2146,1.2133,1.2113,1.2126,1.2108,1.2138,1.2138,1.2138,1.2138,1.2138,1.1351,1.1382,1.1444,1.1499,1.1544,1.1591,1.1627,1.1674,1.1724,1.1792,1.1822,1.1882,1.1943,1.2034,1.2073,1.2121,1.2128,1.2138,1.2141,1.2143,1.2141,1.2104,1.2133,1.2133,1.2133,1.2133,1.2133,0,1.1361,1.1403,1.1453,1.1524,1.1567,1.1591,1.165,1.1685,1.1737,1.1791,1.1841,1.191,1.1968,1.2029,1.2091,1.2118,1.2134,1.2133,1.2132,1.2141,1.213,1.2118,1.2119,1.2119,1.2119,1.2119,1.2119,1.2119,1.1371,1.1425,1.1458,1.1535,1.1577,1.1636,1.1668,1.1712,1.1756,1.1831,1.188,1.1919,1.1976,1.2043,1.2098,1.2114,1.2136,1.2131,1.2152,1.2141,1.2141,1.2142,1.2132,1.2135,1.2135,1.2159,1.2159,1.2159]}]]